Location: Godiavel Galaoual
(15.2485°N, 12.6604°W)
Time: 13:56:10
(UTC+00:00)

APEX - Pass Details

Date: 27 February 2020
Orbit: 330 x 1120 km, 69.9° (Epoch: 29 March)

Event Time Altitude Azimuth Distance (km) Brightness Sun altitude
Rises 19:30:03 0° 196° (SSW) 2,491 7.0 -8.6°
Reaches altitude 10° 19:31:56 10° 195° (SSW) 1,713 6.1 -9.0°
Maximum altitude 19:35:44 85° 107° (ESE) 599 3.4 -9.9°
Drops below altitude 10° 19:40:38 10° 19° (NNE) 2,191 6.1 -11.1°
Sets 19:43:18 0° 19° (NNE) 3,260 7.0 -11.7°
